Time,TemperatureF,DewpointF,PressureIn,WindDirection,WindDirectionDegrees,WindSpeedMPH,WindSpeedGustMPH,Humidity,HourlyPrecipIn,Conditions,Clouds,dailyrainin,SolarRadiationWatts/m^2,SoftwareType,DateUTC
2013-02-09 00:00:00,36.3,36.3,29.72,SE,130,0.0,-999.0,100,-99.99,,,0.00,0.0,cwc,2013-02-09 07:00:00,
2013-02-09 00:05:00,36.2,36.2,29.72,SE,130,0.0,-999.0,100,-99.99,,,0.00,0.0,cwc,2013-02-09 07:05:00,
2013-02-09 00:10:00,34.9,3.6,29.72,SE,130,0.0,-999.0,13,-99.99,,,0.00,0.0,cwc,2013-02-09 07:10:00,
2013-02-09 00:15:00,30.4,30.4,29.72,SE,130,0.0,-999.0,100,-99.99,,,0.00,0.0,cwc,2013-02-09 07:15:00,
2013-02-09 00:20:00,29.0,29.0,29.71,SE,130,0.0,-999.0,100,-99.99,,,0.00,0.0,cwc,2013-02-09 07:20:00,
2013-02-09 00:25:00,28.7,28.7,29.71,SE,130,1.0,-999.0,100,-99.99,,,0.00,0.0,cwc,2013-02-09 07:25:00,
2013-02-09 00:30:00,29.7,29.7,29.71,SE,130,0.0,-999.0,100,-99.99,,,0.00,0.0,cwc,2013-02-09 07:30:00,
2013-02-09 00:35:00,28.4,28.4,29.69,SE,130,0.0,-999.0,100,-99.99,,,0.00,0.0,cwc,2013-02-09 07:35:00,
2013-02-09 00:40:00,29.1,29.1,29.69,SE,130,0.0,-999.0,100,-99.99,,,0.00,0.0,cwc,2013-02-09 07:40:00,
2013-02-09 00:45:00,30.0,30.0,29.69,SE,130,0.0,-999.0,100,-99.99,,,0.00,0.0,cwc,2013-02-09 07:45:00,
2013-02-09 00:50:00,33.5,33.5,29.70,SE,130,0.0,-999.0,100,-99.99,,,0.00,0.0,cwc,2013-02-09 07:50:00,
2013-02-09 00:55:00,35.8,-0.2,29.70,SE,130,0.0,-999.0,0,-99.99,,,0.00,0.0,cwc,2013-02-09 07:55:00,
2013-02-09 01:00:00,32.4,32.4,29.70,SE,130,0.0,-999.0,100,-99.99,,,0.00,0.0,cwc,2013-02-09 08:00:00,
2013-02-09 01:05:00,35.6,35.6,29.68,SE,130,0.0,-999.0,100,-99.99,,,0.00,0.0,cwc,2013-02-09 08:05:00,
2013-02-09 01:10:00,35.6,-0.4,29.68,SE,130,0.0,-999.0,0,-99.99,,,0.00,0.0,cwc,2013-02-09 08:10:00,
2013-02-09 01:15:00,30.9,-5.1,29.68,SE,130,0.0,-999.0,0,-99.99,,,0.00,0.0,cwc,2013-02-09 08:15:00,
2013-02-09 01:20:00,29.0,-7.0,29.73,SE,130,0.0,-999.0,0,-99.99,,,0.00,0.0,cwc,2013-02-09 08:20:00,
2013-02-09 01:25:00,27.5,27.5,29.73,SE,130,0.0,-999.0,100,-99.99,,,0.00,0.0,cwc,2013-02-09 08:25:00,
2013-02-09 01:30:00,27.6,-1.6,29.73,SE,130,0.0,-999.0,19,-99.99,,,0.00,0.0,cwc,2013-02-09 08:30:00,
2013-02-09 01:35:00,26.9,-2.6,29.72,SE,130,0.0,-999.0,18,-99.99,,,0.00,0.0,cwc,2013-02-09 08:35:00,
2013-02-09 01:40:00,28.1,2.9,29.72,SE,130,0.0,-999.0,30,-99.99,,,0.00,0.0,cwc,2013-02-09 08:40:00,
2013-02-09 01:45:00,27.0,-2.2,29.72,SE,130,0.0,-999.0,19,-99.99,,,0.00,0.0,cwc,2013-02-09 08:45:00,
2013-02-09 01:50:00,27.3,-1.1,29.73,SE,130,0.0,-999.0,21,-99.99,,,0.00,0.0,cwc,2013-02-09 08:50:00,
2013-02-09 01:55:00,26.7,0.1,29.73,SE,130,0.0,-999.0,26,-99.99,,,0.00,0.0,cwc,2013-02-09 08:55:00,
2013-02-09 02:00:00,27.8,1.2,29.73,SE,130,0.0,-999.0,26,-99.99,,,0.00,0.0,cwc,2013-02-09 09:00:00,
2013-02-09 02:05:00,31.0,28.8,29.70,SE,130,0.0,-999.0,94,-99.99,,,0.00,0.0,cwc,2013-02-09 09:05:00,
2013-02-09 02:10:00,29.0,14.6,29.70,SE,130,0.0,-999.0,60,-99.99,,,0.00,0.0,cwc,2013-02-09 09:10:00,
2013-02-09 02:15:00,32.4,18.0,29.70,SE,130,0.0,-999.0,60,-99.99,,,0.00,0.0,cwc,2013-02-09 09:15:00,
2013-02-09 02:20:00,30.6,30.6,29.65,SE,130,0.0,-999.0,100,-99.99,,,0.00,0.0,cwc,2013-02-09 09:20:00,
2013-02-09 02:25:00,30.1,30.1,29.65,SE,130,0.0,-999.0,100,-99.99,,,0.00,0.0,cwc,2013-02-09 09:25:00,
2013-02-09 02:30:00,26.6,26.6,29.65,SE,130,0.0,-999.0,100,-99.99,,,0.00,0.0,cwc,2013-02-09 09:30:00,
2013-02-09 02:35:00,27.0,27.0,29.71,SE,130,4.0,-999.0,100,-99.99,,,0.00,0.0,cwc,2013-02-09 09:35:00,
2013-02-09 02:40:00,30.4,30.4,29.71,SE,130,0.0,-999.0,100,-99.99,,,0.00,0.0,cwc,2013-02-09 09:40:00,
2013-02-09 02:45:00,29.5,29.5,29.71,SE,130,0.0,-999.0,100,-99.99,,,0.00,0.0,cwc,2013-02-09 09:45:00,
2013-02-09 02:50:00,28.8,28.8,29.68,SE,130,0.0,-999.0,100,-99.99,,,0.00,0.0,cwc,2013-02-09 09:50:00,
2013-02-09 02:55:00,26.4,26.4,29.68,SE,130,0.0,-999.0,100,-99.99,,,0.00,0.0,cwc,2013-02-09 09:55:00,
2013-02-09 03:00:00,24.7,-11.3,29.68,SE,130,1.0,-999.0,0,-99.99,,,0.00,0.0,cwc,2013-02-09 10:00:00,
2013-02-09 03:05:00,24.5,24.5,29.73,SE,130,0.0,-999.0,100,-99.99,,,0.00,0.0,cwc,2013-02-09 10:05:00,
2013-02-09 03:10:00,28.5,-0.7,29.73,SE,130,0.0,-999.0,19,-99.99,,,0.00,0.0,cwc,2013-02-09 10:10:00,
2013-02-09 03:15:00,30.0,1.6,29.73,SE,130,0.0,-999.0,21,-99.99,,,0.00,0.0,cwc,2013-02-09 10:15:00,
2013-02-09 03:20:00,32.4,-3.6,29.67,SE,130,0.0,-999.0,0,-99.99,,,0.00,0.0,cwc,2013-02-09 10:20:00,
2013-02-09 03:25:00,27.6,-7.0,29.67,SE,130,0.0,-999.0,4,-99.99,,,0.00,0.0,cwc,2013-02-09 10:25:00,
2013-02-09 03:30:00,26.9,-6.2,29.67,SE,130,0.0,-999.0,8,-99.99,,,0.00,0.0,cwc,2013-02-09 10:30:00,
2013-02-09 03:35:00,25.1,-1.5,29.70,SE,130,0.0,-999.0,26,-99.99,,,0.00,0.0,cwc,2013-02-09 10:35:00,
2013-02-09 03:40:00,30.3,-5.7,29.70,SE,130,0.0,-999.0,0,-99.99,,,0.00,0.0,cwc,2013-02-09 10:40:00,
2013-02-09 03:45:00,27.0,-9.0,29.70,SE,130,0.0,-999.0,0,-99.99,,,0.00,0.0,cwc,2013-02-09 10:45:00,
2013-02-09 03:50:00,28.8,-7.2,29.69,SE,130,0.0,-999.0,0,-99.99,,,0.00,0.0,cwc,2013-02-09 10:50:00,
2013-02-09 03:55:00,28.8,28.8,29.69,SE,130,0.0,-999.0,100,-99.99,,,0.00,0.0,cwc,2013-02-09 10:55:00,
2013-02-09 04:00:00,28.1,-7.9,29.69,SE,130,4.0,-999.0,0,-99.99,,,0.00,0.0,cwc,2013-02-09 11:00:00,
2013-02-09 04:05:00,28.4,28.4,29.68,SE,138,0.0,-999.0,100,-99.99,,,0.00,0.0,cwc,2013-02-09 11:05:00,
2013-02-09 04:10:00,25.7,-10.3,29.68,SE,138,0.0,-999.0,0,-99.99,,,0.00,0.0,cwc,2013-02-09 11:10:00,
2013-02-09 04:15:00,24.1,-10.5,29.68,SE,138,0.0,-999.0,4,-99.99,,,0.00,0.0,cwc,2013-02-09 11:15:00,
2013-02-09 04:20:00,25.3,-7.8,29.71,SE,138,0.0,-999.0,8,-99.99,,,0.00,0.0,cwc,2013-02-09 11:20:00,
2013-02-09 04:25:00,24.5,-10.8,29.71,SE,138,0.0,-999.0,2,-99.99,,,0.00,0.0,cwc,2013-02-09 11:25:00,
2013-02-09 04:30:00,25.1,-10.9,29.71,SE,138,0.0,-999.0,0,-99.99,,,0.00,0.0,cwc,2013-02-09 11:30:00,
2013-02-09 04:35:00,25.8,-7.7,29.70,SE,138,0.0,-999.0,7,-99.99,,,0.00,0.0,cwc,2013-02-09 11:35:00,
2013-02-09 04:40:00,24.8,-9.8,29.70,SE,138,0.0,-999.0,4,-99.99,,,0.00,0.0,cwc,2013-02-09 11:40:00,
2013-02-09 04:45:00,23.9,-9.9,29.70,SE,138,0.0,-999.0,6,-99.99,,,0.00,0.0,cwc,2013-02-09 11:45:00,
2013-02-09 04:50:00,23.5,23.5,29.67,SE,138,0.0,-999.0,100,-99.99,,,0.00,0.0,cwc,2013-02-09 11:50:00,
2013-02-09 04:55:00,23.2,21.8,29.67,SE,138,0.0,-999.0,96,-99.99,,,0.00,0.0,cwc,2013-02-09 11:55:00,
2013-02-09 05:00:00,23.9,23.9,29.67,SE,138,0.0,-999.0,100,-99.99,,,0.00,0.0,cwc,2013-02-09 12:00:00,
2013-02-09 05:05:00,31.6,31.6,29.70,SE,138,0.0,-999.0,100,-99.99,,,0.00,0.0,cwc,2013-02-09 12:05:00,
2013-02-09 05:10:00,28.5,17.0,29.70,SE,138,0.0,-999.0,68,-99.99,,,0.00,0.0,cwc,2013-02-09 12:10:00,
2013-02-09 05:15:00,26.0,11.6,29.70,SE,138,0.0,-999.0,60,-99.99,,,0.00,0.0,cwc,2013-02-09 12:15:00,
2013-02-09 05:20:00,26.3,16.6,29.67,SE,138,0.0,-999.0,73,-99.99,,,0.00,0.0,cwc,2013-02-09 12:20:00,
2013-02-09 05:25:00,24.2,24.2,29.67,SE,138,0.0,-999.0,100,-99.99,,,0.00,0.0,cwc,2013-02-09 12:25:00,
2013-02-09 05:30:00,23.8,23.8,29.67,SE,138,0.0,-999.0,100,-99.99,,,0.00,0.0,cwc,2013-02-09 12:30:00,
2013-02-09 05:35:00,26.0,26.0,29.66,SE,138,0.0,-999.0,100,-99.99,,,0.00,0.0,cwc,2013-02-09 12:35:00,
2013-02-09 05:40:00,24.8,13.6,29.66,SE,138,0.0,-999.0,69,-99.99,,,0.00,0.0,cwc,2013-02-09 12:40:00,
2013-02-09 05:45:00,28.4,-7.6,29.66,SE,138,0.0,-999.0,0,-99.99,,,0.00,0.0,cwc,2013-02-09 12:45:00,
2013-02-09 05:50:00,29.5,-6.5,29.66,SE,138,0.0,-999.0,0,-99.99,,,0.00,0.0,cwc,2013-02-09 12:50:00,
2013-02-09 05:55:00,33.2,-2.8,29.66,SE,138,0.0,-999.0,0,-99.99,,,0.00,0.0,cwc,2013-02-09 12:55:00,
2013-02-09 06:00:00,29.3,-6.7,29.66,SE,138,0.0,-999.0,0,-99.99,,,0.00,0.0,cwc,2013-02-09 13:00:00,
2013-02-09 06:05:00,28.8,-7.2,29.59,SE,138,0.0,-999.0,0,-99.99,,,0.00,0.0,cwc,2013-02-09 13:05:00,
2013-02-09 06:10:00,27.6,-8.4,29.59,SE,138,0.0,-999.0,0,-99.99,,,0.00,0.0,cwc,2013-02-09 13:10:00,
2013-02-09 06:15:00,26.0,-10.0,29.59,SE,138,0.0,-999.0,0,-99.99,,,0.00,0.0,cwc,2013-02-09 13:15:00,
2013-02-09 06:20:00,25.7,-10.3,29.70,SE,138,0.0,-999.0,0,-99.99,,,0.00,0.0,cwc,2013-02-09 13:20:00,
2013-02-09 06:25:00,25.0,-11.0,29.70,SE,138,0.0,-999.0,0,-99.99,,,0.00,0.0,cwc,2013-02-09 13:25:00,
2013-02-09 06:30:00,23.6,23.6,29.70,SE,138,0.0,-999.0,100,-99.99,,,0.00,0.0,cwc,2013-02-09 13:30:00,
2013-02-09 06:35:00,22.5,22.5,29.70,SE,138,0.0,-999.0,100,-99.99,,,0.00,0.0,cwc,2013-02-09 13:35:00,
2013-02-09 06:40:00,21.8,21.8,29.70,SE,138,0.0,-999.0,100,-99.99,,,0.00,0.0,cwc,2013-02-09 13:40:00,
2013-02-09 06:45:00,22.4,22.4,29.70,SE,138,0.0,-999.0,100,-99.99,,,0.00,0.0,cwc,2013-02-09 13:45:00,
2013-02-09 06:50:00,25.8,25.8,29.68,SE,138,0.0,-999.0,100,-99.99,,,0.00,0.0,cwc,2013-02-09 13:50:00,
2013-02-09 06:55:00,25.7,25.7,29.68,SE,138,6.0,-999.0,100,-99.99,,,0.00,0.0,cwc,2013-02-09 13:55:00,
2013-02-09 07:00:00,24.8,24.8,29.68,SE,138,0.0,-999.0,100,-99.99,,,0.00,0.0,cwc,2013-02-09 14:00:00,
2013-02-09 07:05:00,23.8,23.8,29.69,SSE,151,1.0,-999.0,100,-99.99,,,0.00,0.0,cwc,2013-02-09 14:05:00,
2013-02-09 07:10:00,22.5,22.5,29.69,SSE,151,0.0,-999.0,100,-99.99,,,0.00,0.0,cwc,2013-02-09 14:10:00,
2013-02-09 07:15:00,22.4,22.4,29.69,SSE,151,4.0,-999.0,100,-99.99,,,0.00,0.0,cwc,2013-02-09 14:15:00,
2013-02-09 07:20:00,22.1,-13.9,29.69,SSE,151,0.0,-999.0,0,-99.99,,,0.00,0.0,cwc,2013-02-09 14:20:00,
2013-02-09 07:25:00,22.9,-13.1,29.69,ESE,104,0.0,-999.0,0,-99.99,,,0.00,0.0,cwc,2013-02-09 14:25:00,
2013-02-09 07:30:00,23.5,-12.5,29.69,SE,131,0.0,-999.0,0,-99.99,,,0.00,0.0,cwc,2013-02-09 14:30:00,
2013-02-09 07:35:00,24.2,-11.8,29.72,SE,131,2.0,-999.0,0,-99.99,,,0.00,0.0,cwc,2013-02-09 14:35:00,
2013-02-09 07:40:00,23.8,-12.2,29.72,ESE,123,0.0,-999.0,0,-99.99,,,0.00,0.0,cwc,2013-02-09 14:40:00,
2013-02-09 07:45:00,24.5,-11.5,29.72,ESE,123,0.0,-999.0,0,-99.99,,,0.00,0.0,cwc,2013-02-09 14:45:00,
2013-02-09 07:50:00,26.4,-9.6,29.72,ESE,123,4.0,-999.0,0,-99.99,,,0.00,0.0,cwc,2013-02-09 14:50:00,
2013-02-09 07:55:00,26.4,-9.6,29.72,SE,143,4.0,-999.0,0,-99.99,,,0.00,0.0,cwc,2013-02-09 14:55:00,
2013-02-09 08:00:00,28.8,-7.2,29.72,SE,145,0.0,-999.0,0,-99.99,,,0.00,0.0,cwc,2013-02-09 15:00:00,
2013-02-09 08:05:00,28.4,-7.6,29.67,SE,145,0.0,-999.0,0,-99.99,,,0.00,0.0,cwc,2013-02-09 15:05:00,
2013-02-09 08:10:00,28.4,28.4,29.67,SE,145,0.0,-999.0,100,-99.99,,,0.00,0.0,cwc,2013-02-09 15:10:00,
2013-02-09 08:15:00,30.3,30.3,29.67,East,90,2.0,-999.0,100,-99.99,,,0.00,0.0,cwc,2013-02-09 15:15:00,
2013-02-09 08:20:00,30.0,30.0,29.65,East,90,0.0,-999.0,100,-99.99,,,0.00,0.0,cwc,2013-02-09 15:20:00,
2013-02-09 08:25:00,30.1,30.1,29.65,East,90,1.0,-999.0,100,-99.99,,,0.00,0.0,cwc,2013-02-09 15:25:00,
2013-02-09 08:30:00,30.6,30.6,29.65,East,90,0.0,-999.0,100,-99.99,,,0.00,0.0,cwc,2013-02-09 15:30:00,
2013-02-09 08:35:00,31.2,31.2,29.65,East,90,0.0,-999.0,100,-99.99,,,0.00,0.0,cwc,2013-02-09 15:35:00,
2013-02-09 08:40:00,32.5,32.5,29.65,East,90,0.0,-999.0,100,-99.99,,,0.00,0.0,cwc,2013-02-09 15:40:00,
2013-02-09 08:45:00,32.7,32.7,29.65,East,90,0.0,-999.0,100,-99.99,,,0.00,0.0,cwc,2013-02-09 15:45:00,
2013-02-09 08:50:00,32.9,32.9,29.62,East,90,0.0,-999.0,100,-99.99,,,0.00,0.0,cwc,2013-02-09 15:50:00,
2013-02-09 08:55:00,33.2,33.2,29.62,East,90,0.0,-999.0,100,-99.99,,,0.00,0.0,cwc,2013-02-09 15:55:00,
2013-02-09 09:00:00,33.4,33.4,29.62,East,90,0.0,-999.0,100,-99.99,,,0.00,0.0,cwc,2013-02-09 16:00:00,
2013-02-09 09:05:00,34.0,34.0,29.61,East,89,0.0,-999.0,100,-99.99,,,0.00,0.0,cwc,2013-02-09 16:05:00,
2013-02-09 09:10:00,34.4,34.4,29.61,East,89,0.0,-999.0,100,-99.99,,,0.00,0.0,cwc,2013-02-09 16:10:00,
2013-02-09 09:15:00,35.0,28.5,29.61,East,89,0.0,-999.0,82,-99.99,,,0.00,0.0,cwc,2013-02-09 16:15:00,
2013-02-09 09:20:00,35.6,15.4,29.60,East,89,0.0,-999.0,44,-99.99,,,0.00,0.0,cwc,2013-02-09 16:20:00,
2013-02-09 09:25:00,36.2,4.5,29.60,East,89,0.0,-999.0,12,-99.99,,,0.00,0.0,cwc,2013-02-09 16:25:00,
2013-02-09 09:30:00,37.6,1.6,29.60,WNW,285,4.0,-999.0,0,-99.99,,,0.00,0.0,cwc,2013-02-09 16:30:00,
2013-02-09 09:35:00,39.2,5.4,29.58,WSW,251,0.0,-999.0,6,-99.99,,,0.00,0.0,cwc,2013-02-09 16:35:00,
2013-02-09 09:40:00,40.1,8.8,29.58,SW,236,8.0,-999.0,13,-99.99,,,0.00,0.0,cwc,2013-02-09 16:40:00,
2013-02-09 09:45:00,41.3,11.8,29.58,WSW,240,14.0,-999.0,18,-99.99,,,0.00,0.0,cwc,2013-02-09 16:45:00,
2013-02-09 09:50:00,43.2,21.6,29.51,SW,217,10.0,-999.0,40,-99.99,,,0.00,0.0,cwc,2013-02-09 16:50:00,
2013-02-09 09:55:00,44.2,18.3,29.51,SW,234,6.0,-999.0,28,-99.99,,,0.00,0.0,cwc,2013-02-09 16:55:00,
2013-02-09 10:00:00,44.1,18.5,29.51,SW,229,11.0,-999.0,29,-99.99,,,0.00,0.0,cwc,2013-02-09 17:00:00,
2013-02-09 10:05:00,44.8,18.9,29.52,WSW,244,8.0,-999.0,28,-99.99,,,0.00,0.0,cwc,2013-02-09 17:05:00,
2013-02-09 10:10:00,44.5,17.5,29.52,South,169,17.0,-999.0,25,-99.99,,,0.00,0.0,cwc,2013-02-09 17:10:00,
2013-02-09 10:15:00,44.9,18.3,29.52,WSW,244,13.0,-999.0,26,-99.99,,,0.00,0.0,cwc,2013-02-09 17:15:00,
2013-02-09 10:20:00,45.2,18.2,29.53,WSW,258,8.0,-999.0,25,-99.99,,,0.00,0.0,cwc,2013-02-09 17:20:00,
2013-02-09 10:25:00,45.1,17.0,29.53,WSW,237,15.0,-999.0,22,-99.99,,,0.00,0.0,cwc,2013-02-09 17:25:00,
2013-02-09 10:30:00,44.9,17.2,29.53,SW,217,14.0,-999.0,23,-99.99,,,0.00,0.0,cwc,2013-02-09 17:30:00,
2013-02-09 10:35:00,45.1,16.7,29.53,SW,232,7.0,-999.0,21,-99.99,,,0.00,0.0,cwc,2013-02-09 17:35:00,
2013-02-09 10:40:00,44.8,16.7,29.53,SW,234,22.0,-999.0,22,-99.99,,,0.00,0.0,cwc,2013-02-09 17:40:00,
2013-02-09 10:45:00,44.9,17.2,29.53,SSW,212,15.0,-999.0,23,-99.99,,,0.00,0.0,cwc,2013-02-09 17:45:00,
2013-02-09 10:50:00,45.7,17.6,29.53,SSW,212,17.0,-999.0,22,-99.99,,,0.00,0.0,cwc,2013-02-09 17:50:00,
2013-02-09 10:55:00,45.5,18.1,29.53,South,185,20.0,-999.0,24,-99.99,,,0.00,0.0,cwc,2013-02-09 17:55:00,
2013-02-09 11:00:00,45.5,18.1,29.53,SSW,199,29.0,-999.0,24,-99.99,,,0.00,0.0,cwc,2013-02-09 18:00:00,
2013-02-09 11:05:00,44.8,17.8,29.51,SW,222,17.0,-999.0,25,-99.99,,,0.00,0.0,cwc,2013-02-09 18:05:00,
2013-02-09 11:10:00,45.7,18.3,29.51,SW,229,13.0,-999.0,24,-99.99,,,0.00,0.0,cwc,2013-02-09 18:10:00,
2013-02-09 11:15:00,46.0,18.3,29.51,WSW,244,16.0,-999.0,23,-99.99,,,0.00,0.0,cwc,2013-02-09 18:15:00,
2013-02-09 11:20:00,45.1,17.4,29.52,WSW,254,13.0,-999.0,23,-99.99,,,0.00,0.0,cwc,2013-02-09 18:20:00,
2013-02-09 11:25:00,45.5,17.4,29.52,WSW,253,22.0,-999.0,22,-99.99,,,0.00,0.0,cwc,2013-02-09 18:25:00,
2013-02-09 11:30:00,46.0,17.9,29.52,SSW,200,16.0,-999.0,22,-99.99,,,0.00,0.0,cwc,2013-02-09 18:30:00,
2013-02-09 11:35:00,45.2,16.4,29.51,SSE,168,26.0,-999.0,20,-99.99,,,0.00,0.0,cwc,2013-02-09 18:35:00,
2013-02-09 11:40:00,44.2,15.4,29.51,SW,232,25.0,-999.0,20,-99.99,,,0.00,0.0,cwc,2013-02-09 18:40:00,
2013-02-09 11:45:00,43.8,15.7,29.51,WSW,239,28.0,-999.0,22,-99.99,,,0.00,0.0,cwc,2013-02-09 18:45:00,
2013-02-09 11:50:00,42.6,16.0,29.53,SSW,200,22.0,-999.0,26,-99.99,,,0.00,0.0,cwc,2013-02-09 18:50:00,
2013-02-09 11:55:00,41.9,17.4,29.53,WSW,240,17.0,-999.0,32,-99.99,,,0.00,0.0,cwc,2013-02-09 18:55:00,
2013-02-09 12:00:00,41.3,17.5,29.53,SW,223,17.0,-999.0,34,-99.99,,,0.00,0.0,cwc,2013-02-09 19:00:00,
2013-02-09 12:05:00,42.2,18.8,29.56,WSW,239,24.0,-999.0,35,-99.99,,,0.00,0.0,cwc,2013-02-09 19:05:00,
2013-02-09 12:10:00,42.2,17.7,29.56,SW,223,24.0,-999.0,32,-99.99,,,0.00,0.0,cwc,2013-02-09 19:10:00,
2013-02-09 12:15:00,42.5,18.4,29.56,SW,223,8.0,-999.0,33,-99.99,,,0.00,0.0,cwc,2013-02-09 19:15:00,
2013-02-09 12:20:00,40.6,18.6,29.53,WSW,240,34.0,-999.0,39,-99.99,,,0.00,0.0,cwc,2013-02-09 19:20:00,
2013-02-09 12:25:00,39.6,19.8,29.53,WSW,253,7.0,-999.0,45,-99.99,,,0.00,0.0,cwc,2013-02-09 19:25:00,
2013-02-09 12:30:00,39.9,19.4,29.53,SW,233,14.0,-999.0,43,-99.99,,,0.00,0.0,cwc,2013-02-09 19:30:00,
2013-02-09 12:35:00,39.9,21.5,29.55,WNW,285,15.0,-999.0,49,-99.99,,,0.00,0.0,cwc,2013-02-09 19:35:00,
2013-02-09 12:40:00,40.8,22.1,29.55,WSW,246,11.0,-999.0,48,-99.99,,,0.00,0.0,cwc,2013-02-09 19:40:00,
2013-02-09 12:45:00,39.3,21.7,29.55,SW,224,15.0,-999.0,51,-99.99,,,0.00,0.0,cwc,2013-02-09 19:45:00,
2013-02-09 12:50:00,39.1,22.2,29.57,West,264,13.0,-999.0,53,-99.99,,,0.00,0.0,cwc,2013-02-09 19:50:00,
2013-02-09 12:55:00,35.5,21.5,29.57,SW,217,13.0,-999.0,61,-99.99,,,0.00,0.0,cwc,2013-02-09 19:55:00,
2013-02-09 13:00:00,32.9,22.8,29.57,NW,313,17.0,-999.0,72,-99.99,,,0.00,0.0,cwc,2013-02-09 20:00:00,
2013-02-09 13:05:00,32.1,20.9,29.64,NW,304,21.0,-999.0,69,-99.99,,,0.00,0.0,cwc,2013-02-09 20:05:00,
2013-02-09 13:10:00,32.1,-3.5,29.64,WNW,298,23.0,-999.0,1,-99.99,,,0.00,0.0,cwc,2013-02-09 20:10:00,
2013-02-09 13:15:00,31.9,-4.1,29.64,NW,323,15.0,-999.0,0,-99.99,,,0.00,0.0,cwc,2013-02-09 20:15:00,
2013-02-09 13:25:00,32.2,-3.8,29.64,NW,309,15.0,-999.0,0,-99.99,,,0.00,0.0,cwc,2013-02-09 20:25:00,
2013-02-09 13:30:00,32.8,-1.4,29.64,NW,311,4.0,-999.0,5,-99.99,,,0.00,0.0,cwc,2013-02-09 20:30:00,
2013-02-09 13:35:00,33.2,4.0,29.64,NW,305,7.0,-999.0,19,-99.99,,,0.00,0.0,cwc,2013-02-09 20:35:00,
2013-02-09 13:40:00,34.0,14.2,29.64,NW,322,6.0,-999.0,45,-99.99,,,0.00,0.0,cwc,2013-02-09 20:40:00,
2013-02-09 13:45:00,34.1,14.7,29.64,WNW,291,4.0,-999.0,46,-99.99,,,0.00,0.0,cwc,2013-02-09 20:45:00,
2013-02-09 13:50:00,34.9,15.1,29.61,NW,319,7.0,-999.0,45,-99.99,,,0.00,0.0,cwc,2013-02-09 20:50:00,
2013-02-09 13:55:00,35.8,11.3,29.61,WSW,239,4.0,-999.0,32,-99.99,,,0.00,0.0,cwc,2013-02-09 20:55:00,
2013-02-09 14:00:00,35.5,27.9,29.61,WNW,302,8.0,-999.0,79,-99.99,,,0.00,0.0,cwc,2013-02-09 21:00:00,
2013-02-09 14:10:00,35.6,26.2,29.60,SW,227,6.0,-999.0,74,-99.99,,,0.00,0.0,cwc,2013-02-09 21:10:00,
2013-02-09 14:15:00,35.8,25.0,29.60,WNW,282,4.0,-999.0,70,-99.99,,,0.00,0.0,cwc,2013-02-09 21:15:00,
2013-02-09 14:20:00,34.9,22.3,29.66,West,275,4.0,-999.0,65,-99.99,,,0.00,0.0,cwc,2013-02-09 21:20:00,
2013-02-09 14:25:00,34.7,20.7,29.66,NW,313,15.0,-999.0,61,-99.99,,,0.00,0.0,cwc,2013-02-09 21:25:00,
2013-02-09 14:30:00,35.0,22.0,29.66,West,274,10.0,-999.0,64,-99.99,,,0.00,0.0,cwc,2013-02-09 21:30:00,
2013-02-09 14:35:00,34.9,22.3,29.66,West,280,6.0,-999.0,65,-99.99,,,0.00,0.0,cwc,2013-02-09 21:35:00,
2013-02-09 14:40:00,34.9,22.3,29.66,NNW,342,9.0,-999.0,65,-99.99,,,0.00,0.0,cwc,2013-02-09 21:40:00,
2013-02-09 14:45:00,34.6,22.4,29.66,WNW,296,13.0,-999.0,66,-99.99,,,0.00,0.0,cwc,2013-02-09 21:45:00,
2013-02-09 14:50:00,34.3,16.3,29.64,NW,306,11.0,-999.0,50,-99.99,,,0.00,0.0,cwc,2013-02-09 21:50:00,
2013-02-09 14:55:00,34.3,17.0,29.64,WNW,282,2.0,-999.0,52,-99.99,,,0.00,0.0,cwc,2013-02-09 21:55:00,
2013-02-09 15:00:00,34.3,16.3,29.64,West,274,10.0,-999.0,50,-99.99,,,0.00,0.0,cwc,2013-02-09 22:00:00,
2013-02-09 15:05:00,34.3,15.6,29.68,WSW,253,8.0,-999.0,48,-99.99,,,0.00,0.0,cwc,2013-02-09 22:05:00,
2013-02-09 15:10:00,34.6,16.2,29.68,NW,320,9.0,-999.0,49,-99.99,,,0.00,0.0,cwc,2013-02-09 22:10:00,
2013-02-09 15:15:00,35.0,16.6,29.68,WSW,237,6.0,-999.0,49,-99.99,,,0.00,0.0,cwc,2013-02-09 22:15:00,
2013-02-09 15:20:00,35.5,13.9,29.63,SW,220,16.0,-999.0,40,-99.99,,,0.00,0.0,cwc,2013-02-09 22:20:00,
2013-02-09 15:25:00,35.8,12.0,29.63,WSW,258,7.0,-999.0,34,-99.99,,,0.00,0.0,cwc,2013-02-09 22:25:00,
2013-02-09 15:30:00,35.8,12.4,29.63,WSW,256,9.0,-999.0,35,-99.99,,,0.00,0.0,cwc,2013-02-09 22:30:00,
2013-02-09 15:35:00,36.0,11.9,29.62,SSW,199,8.0,-999.0,33,-99.99,,,0.00,0.0,cwc,2013-02-09 22:35:00,
2013-02-09 15:40:00,35.9,12.5,29.62,WSW,246,4.0,-999.0,35,-99.99,,,0.00,0.0,cwc,2013-02-09 22:40:00,
2013-02-09 15:45:00,35.3,11.5,29.62,SW,226,9.0,-999.0,34,-99.99,,,0.00,0.0,cwc,2013-02-09 22:45:00,
2013-02-09 15:50:00,35.6,12.6,29.63,WSW,248,7.0,-999.0,36,-99.99,,,0.00,0.0,cwc,2013-02-09 22:50:00,
2013-02-09 16:00:00,34.7,13.1,29.63,NW,305,10.0,-999.0,40,-99.99,,,0.00,0.0,cwc,2013-02-09 23:00:00,
2013-02-09 16:05:00,32.8,15.2,29.66,NW,326,17.0,-999.0,51,-99.99,,,0.00,0.0,cwc,2013-02-09 23:05:00,
2013-02-09 16:10:00,31.6,16.1,29.66,WNW,294,9.0,-999.0,57,-99.99,,,0.00,0.0,cwc,2013-02-09 23:10:00,
2013-02-09 16:15:00,30.9,16.9,29.66,WNW,296,14.0,-999.0,61,-99.99,,,0.00,0.0,cwc,2013-02-09 23:15:00,
2013-02-09 16:20:00,31.5,17.8,29.74,NNW,333,18.0,-999.0,62,-99.99,,,0.00,0.0,cwc,2013-02-09 23:20:00,
2013-02-09 16:25:00,31.5,18.2,29.74,NW,304,7.0,-999.0,63,-99.99,,,0.00,0.0,cwc,2013-02-09 23:25:00,
2013-02-09 16:30:00,32.1,18.4,29.74,NNW,346,6.0,-999.0,62,-99.99,,,0.00,0.0,cwc,2013-02-09 23:30:00,
2013-02-09 16:35:00,32.4,18.4,29.73,NW,308,4.0,-999.0,61,-99.99,,,0.00,0.0,cwc,2013-02-09 23:35:00,
2013-02-09 16:40:00,32.4,18.4,29.73,WNW,288,15.0,-999.0,61,-99.99,,,0.00,0.0,cwc,2013-02-09 23:40:00,
2013-02-09 16:45:00,31.8,17.0,29.73,WNW,284,7.0,-999.0,59,-99.99,,,0.00,0.0,cwc,2013-02-09 23:45:00,
2013-02-09 16:50:00,31.9,16.8,29.74,WNW,284,4.0,-999.0,58,-99.99,,,0.00,0.0,cwc,2013-02-09 23:50:00,
2013-02-09 16:55:00,31.9,16.1,29.74,WNW,295,10.0,-999.0,56,-99.99,,,0.00,0.0,cwc,2013-02-09 23:55:00,
2013-02-09 17:00:00,31.6,15.0,29.74,WSW,251,4.0,-999.0,54,-99.99,,,0.00,0.0,cwc,2013-02-10 00:00:00,
2013-02-09 17:05:00,31.3,14.4,29.73,WSW,256,7.0,-999.0,53,-99.99,,,0.00,0.0,cwc,2013-02-10 00:05:00,
2013-02-09 17:10:00,31.2,14.6,29.73,WNW,284,6.0,-999.0,54,-99.99,,,0.00,0.0,cwc,2013-02-10 00:10:00,
2013-02-09 17:15:00,31.2,13.9,29.73,West,281,4.0,-999.0,52,-99.99,,,0.00,0.0,cwc,2013-02-10 00:15:00,
2013-02-09 17:20:00,31.0,13.7,29.69,West,275,4.0,-999.0,52,-99.99,,,0.00,0.0,cwc,2013-02-10 00:20:00,
2013-02-09 17:25:00,31.6,16.1,29.69,WSW,237,2.0,-999.0,57,-99.99,,,0.00,0.0,cwc,2013-02-10 00:25:00,
2013-02-09 17:30:00,31.6,16.1,29.69,SW,234,0.0,-999.0,57,-99.99,,,0.00,0.0,cwc,2013-02-10 00:30:00,
2013-02-09 17:35:00,33.7,17.5,29.70,SW,223,0.0,-999.0,55,-99.99,,,0.00,0.0,cwc,2013-02-10 00:35:00,
2013-02-09 17:40:00,35.3,24.9,29.70,SW,223,0.0,-999.0,71,-99.99,,,0.00,0.0,cwc,2013-02-10 00:40:00,
2013-02-09 17:45:00,32.8,18.8,29.70,SW,223,6.0,-999.0,61,-99.99,,,0.00,0.0,cwc,2013-02-10 00:45:00,
2013-02-09 17:50:00,31.8,15.6,29.70,SW,229,2.0,-999.0,55,-99.99,,,0.00,0.0,cwc,2013-02-10 00:50:00,
2013-02-09 17:55:00,31.3,15.1,29.70,SW,229,2.0,-999.0,55,-99.99,,,0.00,0.0,cwc,2013-02-10 00:55:00,
2013-02-09 18:00:00,31.2,15.4,29.70,SW,229,2.0,-999.0,56,-99.99,,,0.00,0.0,cwc,2013-02-10 01:00:00,
2013-02-09 18:05:00,31.6,14.7,29.73,West,280,4.0,-999.0,53,-99.99,,,0.00,0.0,cwc,2013-02-10 01:05:00,
2013-02-09 18:10:00,31.6,14.0,29.73,West,270,6.0,-999.0,51,-99.99,,,0.00,0.0,cwc,2013-02-10 01:10:00,
2013-02-09 18:15:00,31.6,13.2,29.73,WNW,302,9.0,-999.0,49,-99.99,,,0.00,0.0,cwc,2013-02-10 01:15:00,
2013-02-09 18:20:00,30.0,15.6,29.76,West,280,8.0,-999.0,60,-99.99,,,0.00,0.0,cwc,2013-02-10 01:20:00,
2013-02-09 18:25:00,29.4,16.8,29.76,WSW,248,13.0,-999.0,65,-99.99,,,0.00,0.0,cwc,2013-02-10 01:25:00,
2013-02-09 18:30:00,28.7,17.5,29.76,SW,217,10.0,-999.0,69,-99.99,,,0.00,0.0,cwc,2013-02-10 01:30:00,
2013-02-09 18:35:00,28.2,17.4,29.78,SW,219,7.0,-999.0,70,-99.99,,,0.00,0.0,cwc,2013-02-10 01:35:00,
2013-02-09 18:40:00,28.2,17.0,29.78,SW,224,6.0,-999.0,69,-99.99,,,0.00,0.0,cwc,2013-02-10 01:40:00,
2013-02-09 18:45:00,29.0,15.7,29.78,SW,215,4.0,-999.0,63,-99.99,,,0.00,0.0,cwc,2013-02-10 01:45:00,
2013-02-09 18:50:00,28.7,18.3,29.79,SW,215,0.0,-999.0,71,-99.99,,,0.00,0.0,cwc,2013-02-10 01:50:00,
2013-02-09 18:55:00,28.8,18.0,29.79,SW,215,0.0,-999.0,70,-99.99,,,0.00,0.0,cwc,2013-02-10 01:55:00,
2013-02-09 19:00:00,28.4,28.4,29.79,SW,219,8.0,-999.0,100,-99.99,,,0.00,0.0,cwc,2013-02-10 02:00:00,
2013-02-09 19:05:00,28.4,28.4,29.78,SW,216,6.0,-999.0,100,-99.99,,,0.00,0.0,cwc,2013-02-10 02:05:00,
2013-02-09 19:10:00,28.4,28.4,29.78,WSW,239,4.0,-999.0,100,-99.99,,,0.00,0.0,cwc,2013-02-10 02:10:00,
2013-02-09 19:15:00,28.4,28.4,29.78,WSW,244,7.0,-999.0,100,-99.99,,,0.00,0.0,cwc,2013-02-10 02:15:00,
2013-02-09 19:20:00,28.8,28.8,29.76,SW,234,6.0,-999.0,100,-99.99,,,0.00,0.0,cwc,2013-02-10 02:20:00,
2013-02-09 19:25:00,28.4,28.4,29.76,WNW,287,4.0,-999.0,100,-99.99,,,0.00,0.0,cwc,2013-02-10 02:25:00,
2013-02-09 19:30:00,28.2,28.2,29.76,West,270,8.0,-999.0,100,-99.99,,,0.00,0.0,cwc,2013-02-10 02:30:00,
2013-02-09 19:35:00,28.4,28.4,29.75,SW,233,7.0,-999.0,100,-99.99,,,0.00,0.0,cwc,2013-02-10 02:35:00,
2013-02-09 19:40:00,27.6,27.6,29.75,WSW,237,11.0,-999.0,100,-99.99,,,0.00,0.0,cwc,2013-02-10 02:40:00,
2013-02-09 19:45:00,27.5,27.1,29.75,SW,233,7.0,-999.0,99,-99.99,,,0.00,0.0,cwc,2013-02-10 02:45:00,
2013-02-09 19:50:00,27.9,27.9,29.75,SW,219,8.0,-999.0,100,-99.99,,,0.00,0.0,cwc,2013-02-10 02:50:00,
2013-02-09 19:55:00,27.8,27.8,29.75,SW,217,6.0,-999.0,100,-99.99,,,0.00,0.0,cwc,2013-02-10 02:55:00,
2013-02-09 20:00:00,27.8,27.8,29.75,South,186,6.0,-999.0,100,-99.99,,,0.00,0.0,cwc,2013-02-10 03:00:00,
2013-02-09 20:05:00,28.4,28.4,29.75,SSW,213,4.0,-999.0,100,-99.99,,,0.00,0.0,cwc,2013-02-10 03:05:00,
2013-02-09 20:10:00,27.9,27.9,29.75,West,275,2.0,-999.0,100,-99.99,,,0.00,0.0,cwc,2013-02-10 03:10:00,
2013-02-09 20:15:00,28.4,25.9,29.75,SW,226,2.0,-999.0,93,-99.99,,,0.00,0.0,cwc,2013-02-10 03:15:00,
2013-02-09 20:20:00,27.9,27.9,29.73,SW,216,6.0,-999.0,100,-99.99,,,0.00,0.0,cwc,2013-02-10 03:20:00,
2013-02-09 20:25:00,28.2,28.2,29.73,SSW,212,10.0,-999.0,100,-99.99,,,0.00,0.0,cwc,2013-02-10 03:25:00,
2013-02-09 20:30:00,27.8,27.8,29.73,SW,223,6.0,-999.0,100,-99.99,,,0.00,0.0,cwc,2013-02-10 03:30:00,
2013-02-09 20:35:00,27.8,27.8,29.74,WSW,257,10.0,-999.0,100,-99.99,,,0.00,0.0,cwc,2013-02-10 03:35:00,
2013-02-09 20:40:00,28.4,24.4,29.74,SW,230,9.0,-999.0,89,-99.99,,,0.00,0.0,cwc,2013-02-10 03:40:00,
2013-02-09 20:45:00,28.4,21.9,29.74,WSW,257,8.0,-999.0,82,-99.99,,,0.00,0.0,cwc,2013-02-10 03:45:00,
2013-02-09 20:50:00,28.5,20.2,29.73,WNW,284,9.0,-999.0,77,-99.99,,,0.00,0.0,cwc,2013-02-10 03:50:00,
2013-02-09 20:55:00,28.5,20.9,29.73,WSW,237,7.0,-999.0,79,-99.99,,,0.00,0.0,cwc,2013-02-10 03:55:00,
2013-02-09 21:00:00,28.4,20.1,29.73,WSW,241,4.0,-999.0,77,-99.99,,,0.00,0.0,cwc,2013-02-10 04:00:00,
2013-02-09 21:05:00,28.4,20.8,29.75,SW,236,6.0,-999.0,79,-99.99,,,0.00,0.0,cwc,2013-02-10 04:05:00,
2013-02-09 21:10:00,28.5,19.1,29.75,WSW,244,6.0,-999.0,74,-99.99,,,0.00,0.0,cwc,2013-02-10 04:10:00,
2013-02-09 21:15:00,28.5,19.9,29.75,SW,236,6.0,-999.0,76,-99.99,,,0.00,0.0,cwc,2013-02-10 04:15:00,
2013-02-09 21:20:00,28.7,19.7,29.67,WSW,248,8.0,-999.0,75,-99.99,,,0.00,0.0,cwc,2013-02-10 04:20:00,
2013-02-09 21:30:00,28.7,15.0,29.67,WNW,289,10.0,-999.0,62,-99.99,,,0.00,0.0,cwc,2013-02-10 04:30:00,
2013-02-09 21:35:00,28.7,15.7,29.68,WSW,247,2.0,-999.0,64,-99.99,,,0.00,0.0,cwc,2013-02-10 04:35:00,
2013-02-09 21:40:00,28.7,15.7,29.68,WSW,237,10.0,-999.0,64,-99.99,,,0.00,0.0,cwc,2013-02-10 04:40:00,
2013-02-09 21:45:00,28.8,15.8,29.68,West,268,4.0,-999.0,64,-99.99,,,0.00,0.0,cwc,2013-02-10 04:45:00,
2013-02-09 21:50:00,30.0,16.7,29.68,WSW,246,2.0,-999.0,63,-99.99,,,0.00,0.0,cwc,2013-02-10 04:50:00,
2013-02-09 21:55:00,29.3,16.0,29.68,WSW,240,4.0,-999.0,63,-99.99,,,0.00,0.0,cwc,2013-02-10 04:55:00,
2013-02-09 22:00:00,29.3,15.3,29.68,WSW,240,1.0,-999.0,61,-99.99,,,0.00,0.0,cwc,2013-02-10 05:00:00,
2013-02-09 22:05:00,30.9,19.7,29.67,SW,236,0.0,-999.0,69,-99.99,,,0.00,0.0,cwc,2013-02-10 05:05:00,
2013-02-09 22:10:00,31.3,19.8,29.67,SSW,205,1.0,-999.0,68,-99.99,,,0.00,0.0,cwc,2013-02-10 05:10:00,
2013-02-09 22:15:00,30.4,17.8,29.67,WNW,282,4.0,-999.0,65,-99.99,,,0.00,0.0,cwc,2013-02-10 05:15:00,
2013-02-09 22:20:00,29.8,16.8,29.64,West,261,2.0,-999.0,64,-99.99,,,0.00,0.0,cwc,2013-02-10 05:20:00,
2013-02-09 22:25:00,30.1,18.2,29.64,West,260,4.0,-999.0,67,-99.99,,,0.00,0.0,cwc,2013-02-10 05:25:00,
2013-02-09 22:30:00,29.7,16.0,29.64,SW,234,4.0,-999.0,62,-99.99,,,0.00,0.0,cwc,2013-02-10 05:30:00,
2013-02-09 22:35:00,29.7,15.3,29.68,WSW,246,4.0,-999.0,60,-99.99,,,0.00,0.0,cwc,2013-02-10 05:35:00,
2013-02-09 22:40:00,29.7,16.4,29.68,SW,234,8.0,-999.0,63,-99.99,,,0.00,0.0,cwc,2013-02-10 05:40:00,
2013-02-09 22:45:00,29.7,15.7,29.68,West,271,7.0,-999.0,61,-99.99,,,0.00,0.0,cwc,2013-02-10 05:45:00,
2013-02-09 22:55:00,30.0,16.3,29.68,WSW,237,8.0,-999.0,62,-99.99,,,0.00,0.0,cwc,2013-02-10 05:55:00,
2013-02-09 23:00:00,29.8,15.0,29.68,SSW,210,11.0,-999.0,59,-99.99,,,0.00,0.0,cwc,2013-02-10 06:00:00,
2013-02-09 23:05:00,30.0,14.9,29.68,WSW,250,6.0,-999.0,58,-99.99,,,0.00,0.0,cwc,2013-02-10 06:05:00,
2013-02-09 23:10:00,30.1,13.9,29.68,WSW,247,7.0,-999.0,55,-99.99,,,0.00,0.0,cwc,2013-02-10 06:10:00,
2013-02-09 23:15:00,30.3,13.4,29.68,WSW,237,10.0,-999.0,53,-99.99,,,0.00,0.0,cwc,2013-02-10 06:15:00,
2013-02-09 23:20:00,30.1,13.5,29.72,WSW,256,8.0,-999.0,54,-99.99,,,0.00,0.0,cwc,2013-02-10 06:20:00,
2013-02-09 23:25:00,30.4,13.8,29.72,SSW,206,13.0,-999.0,54,-99.99,,,0.00,0.0,cwc,2013-02-10 06:25:00,
2013-02-09 23:30:00,30.3,13.0,29.72,WSW,239,13.0,-999.0,52,-99.99,,,0.00,0.0,cwc,2013-02-10 06:30:00,
2013-02-09 23:35:00,30.3,13.0,29.73,WSW,244,9.0,-999.0,52,-99.99,,,0.00,0.0,cwc,2013-02-10 06:35:00,
2013-02-09 23:40:00,30.3,12.7,29.73,West,260,10.0,-999.0,51,-99.99,,,0.00,0.0,cwc,2013-02-10 06:40:00,
2013-02-09 23:45:00,30.3,13.0,29.73,WNW,284,8.0,-999.0,52,-99.99,,,0.00,0.0,cwc,2013-02-10 06:45:00,
2013-02-09 23:50:00,30.1,12.8,29.74,WNW,292,10.0,-999.0,52,-99.99,,,0.00,0.0,cwc,2013-02-10 06:50:00,